Content
SEND FEEDBACK

Daily
Averages
Monthly
Summary
United States of America

ALPINE MEADOWS, CALIFORNIA


Home > North America > United States > California
Elevation: 6230 feet     Latitude: 39 12N     Longitude: 120 14W

WEATHER
 
SELECT A DAY
Number of Records: 290,427;   Date Range: 1/1/95 - 12/20/14
 
SHARE

PRINT THIS DATA

[ ← Previous Day ]
WEATHER ALMANAC - JULY 30, 2014
[ Next Day → ]
[ °C ]   °F
Weather ElementAverageHighLow
Temperature57.2 °F82.4 °F (1:50 pm)42.8 °F (4:15 am)
Dewpoint45.3 °F53.6 °F (6:55 am)37.4 °F (12:45 pm)
Humidity67.5 %88 % (8:55 pm)23 % (11:55 am)
Barometer30.33 in30.38 in (4:50 pm)30.30 in (4:15 am)
Wind Speed2.7 mph17.3 mph (7:55 am)
Wind Gust26.5 mph (8:50 am)
Weather ElementAverage
Visibility10 mi
Wind DirectionENE (65.6 °)

Weather ElementTotal
Precipitation---
Heating Degree Days2.4 (Base 65)
Growing Degree Days12.6 (Base 50)
Averaged from 48 records on July 30, 2014
WEATHER CONDITIONS BREAKOUT
WIND DIRECTION BREAKOUT
WEATHER BY HOUR - JULY 30, 2014
[ °C ]   °F
Local TimeTemperatureDewpointHumidityBarometerVisibilityWind DirectionWind SpeedGust SpeedPrecipitationEventsConditions
12:15 AM50.0 °F41.0 °F71 %30.33 in10.0 miSSE (150°)3.5 mphClear
12:35 AM51.8 °F42.8 °F71 %30.33 in10.0 miCalmClear
12:55 AM51.8 °F42.8 °F71 %30.33 in10.0 miCalmClear
1:15 AM55.4 °F44.6 °F67 %30.33 in10.0 miCalmClear
1:35 AM48.2 °F41.0 °F76 %30.33 in10.0 miESE (120°)4.6 mphClear
1:55 AM46.4 °F41.0 °F81 %30.33 in10.0 miCalmClear
2:15 AM50.0 °F42.8 °F76 %30.33 in10.0 miWSW (240°)3.5 mphClear
2:35 AM50.0 °F41.0 °F71 %30.33 in10.0 miEast (80°)4.6 mphMostly Cloudy
2:55 AM42.8 °F37.4 °F81 %30.33 in10.0 miCalmScattered Clouds
3:15 AM50.0 °F41.0 °F71 %30.34 in10.0 miCalmScattered Clouds
3:35 AM46.4 °F41.0 °F81 %30.33 in10.0 miSouth (180°)4.6 mphOvercast
3:55 AM50.0 °F41.0 °F71 %30.32 in10.0 miCalmOvercast
4:15 AM50.0 °F41.0 °F71 %30.32 in10.0 miCalmScattered Clouds
4:35 AM46.4 °F41.0 °F81 %30.32 in10.0 miESE (120°)4.6 mphClear
4:55 AM48.2 °F41.0 °F76 %30.32 in10.0 miESE (110°)3.5 mphClear
5:15 AM44.6 °F41.0 °F87 %30.32 in10.0 miSW (220°)3.5 mphClear
5:35 AM48.2 °F41.0 °F76 %30.32 in10.0 miCalmClear
5:55 AM46.4 °F39.2 °F76 %30.33 in10.0 miCalmClear
6:15 AM42.8 °F39.2 °F87 %30.33 in10.0 miSouth (180°)3.5 mphClear
6:35 AM44.6 °F41.0 °F87 %30.34 in10.0 miCalmClear
6:55 AM50.0 °F42.8 °F76 %30.34 in10.0 miCalmScattered Clouds
7:55 AM57.2 °F44.6 °F63 %30.35 in10.0 miCalmScattered Clouds
8:55 AM64.4 °F44.6 °F49 %30.34 in10.0 miCalmScattered Clouds
9:45 AM69.8 °F46.4 °F43 %30.35 in10.0 miCalmScattered Clouds
10:55 AM78.8 °F44.6 °F30 %30.32 in10.0 miSSE (160°)4.6 mphScattered Clouds
11:55 AM82.4 °F41.0 °F23 %30.30 in10.0 miSSE (160°)8.1 mphMostly Cloudy
12:55 PM78.8 °F42.8 °F28 %30.31 in10.0 miSouth (180°)8.1 mphOvercast
1:50 PM75.2 °F44.6 °F34 %30.32 in10.0 miNorth (10°)17.3 mph26.5 mphThunderstormThunderstorm
2:45 PM71.6 °F44.6 °F38 %30.35 in10.0 miNorth (10°)6.9 mph18.4 mphThunderstormThunderstorm
3:45 PM66.2 °F48.2 °F52 %30.37 in10.0 miNE (40°)5.8 mphThunderstormThunderstorm
4:50 PM64.4 °F51.8 °F64 %30.38 in10.0 miNNW (340°)5.8 mphThunderstormThunderstorm
5:45 PM64.4 °F50.0 °F59 %30.35 in10.0 miSSE (160°)5.8 mphRainLight Rain
6:15 PM66.2 °F50.0 °F56 %30.34 in10.0 miCalmThunderstormScattered Clouds
6:35 PM68.0 °F48.2 °F49 %30.34 in10.0 miNNE (20°)3.5 mphClear
6:55 PM68.0 °F50.0 °F52 %30.34 in10.0 miCalmScattered Clouds
7:15 PM64.4 °F53.6 °F68 %30.33 in10.0 miNNE (30°)5.8 mphClear
7:35 PM66.2 °F53.6 °F64 %30.32 in10.0 miNNE (20°)6.9 mphScattered Clouds
7:55 PM64.4 °F53.6 °F68 %30.33 in10.0 miNorth (10°)6.9 mphScattered Clouds
8:15 PM62.6 °F51.8 °F68 %30.33 in10.0 miNorth (360°)3.5 mphClear
8:35 PM62.6 °F51.8 °F68 %30.34 in10.0 miCalmClear
9:15 PM59.0 °F51.8 °F77 %30.34 in10.0 miCalmClear
9:35 PM59.0 °F51.8 °F77 %30.34 in10.0 miCalmClear
9:55 PM53.6 °F48.2 °F82 %30.34 in10.0 miCalmClear
10:15 PM53.6 °F48.2 °F82 %30.34 in10.0 miWSW (250°)4.6 mphClear
10:35 PM55.4 °F50.0 °F82 %30.34 in10.0 miCalmClear
11:15 PM53.6 °F50.0 °F88 %30.34 in10.0 miCalmClear
11:35 PM51.8 °F46.4 °F82 %30.34 in10.0 miCalmClear
11:55 PM51.8 °F48.2 °F88 %30.34 in10.0 miCalmClear
Hourly data recorded from KTRK, located miles away from Alpine Meadows, California







STORIES FROM OUR PARTNERS